Volver al catálogo

STARLINK-34073

ActivoComunicacionesVLEO
NORAD 64606·PAYLOAD·🇺🇸 United States

Lanzado Jun 25, 2025 desde Cape Canaveral Space Force Station

Loading…

Próximos Pases (próximas 24 horas)

TLE

ActualizadoSource: CelesTrak SupGP

Época: Sep 14, 2026, 21:45 UTC

1 64606C 25137N   26257.90673611 -.00027225  00000+0 -80412-3 0  2579
2 64606  53.1603 175.6823 0001273  82.7552 295.5895 15.34414129    14

Sigue STARLINK-34073 en tiempo real con AllMySat

Download on the App Store